Regional Weather Roundup
Issued by NWS

Home | Current Version | Previous Version | Text Only | Print | Product List | Glossary Off
Versions: 1 2 3 4 5 6 7 8 9 10 11 12 13 14 15 16 17 18 19 20 21 22 23 24 25 26 27 28 29 30 31 32 33 34 35 36 37 38 39 40 41 42 43 44 45 46 47 48 49 50

000
ASUS43 KDMX 290907
RWRIA

WEATHER ROUNDUP FOR IOWA
NATIONAL WEATHER SERVICE DES MOINES IA
400 AM CDT SAT AUG 29 2015

NOTE: "FAIR" INDICATES FEW OR NO CLOUDS BELOW 12,000 FEET WITH NO
SIGNIFICANT WEATHER AND/OR OBSTRUCTIONS TO VISIBILITY.

* - THESE STATIONS ARE NOT NWS STATIONS...THUS NOT UNDER NWS
QUALITY CONTROL.  THEY ALSO DO NOT REPORT WEATHER SUCH
AS PRECIPITATION OR FOG.

IAZ001>003-012>014-020>022-031>034-043>046-291000-
   NORTHWEST IOWA

CITY           SKY/WX    TMP DP  RH WIND       PRES   REMARKS
CARROLL *      CLOUDY    61  61 100 N8        29.99R FOG
CHEROKEE *     CLOUDY    59  59 100 NE7       30.02R
DENISON *      CLOUDY    59  59 100 N7        29.99R FOG
LE MARS *      CLOUDY    59  57  94 NE3       30.03S
ORANGE CITY *  MOCLDY    57  57 100 CALM      30.02S
SHELDON *      MOCLDY    54  54 100 NE7       30.01S FOG
SIOUX CITY     CLOUDY    62  57  83 N6        30.02R
SPENCER        CLOUDY    58  56  93 N6        30.02R FOG
STORM LAKE *   FOG       57  57 100 N9        30.02S VSB 1/4
$$

IAZ055>058-069>071-079>083-090>094-291000-
   SOUTHWEST IOWA

CITY           SKY/WX    TMP DP  RH WIND       PRES   REMARKS
ATLANTIC *     CLOUDY    61  61 100 N9        29.98R
AUDUBON *      CLOUDY    61  57  88 N10       29.99R FOG
CLARINDA *     CLOUDY    66  66 100 N6        29.97R FOG
COUNCIL BLFS * CLOUDY    61  61 100 N8        29.99R FOG
CRESTON *      FOG       64  64 100 N7G13     29.97R VSB 1/2
HARLAN  *      CLOUDY    61 N/A N/A N9        30.02R FOG
LAMONI         CLOUDY    70  68  93 W5        29.94R FOG
RED OAK *      CLOUDY    63  63 100 N10       29.97R
SHENANDOAH *   CLOUDY    64  64 100 N8        29.97R
$$

IAZ047>049-059>061-072>074-084-291000-
   CENTRAL IOWA

CITY           SKY/WX    TMP DP  RH WIND       PRES   REMARKS
AMES           CLOUDY    62  62 100 N10       29.95R FOG
ANKENY *       CLOUDY    64  64 100 NW6G12    29.94R
CHARITON *     CLOUDY    70  68  94 SW6       29.94R
DES MOINES     DRIZZLE   65  63  93 N9        29.94R FOG
GRINNELL*      CLOUDY    68  66  94 CALM      29.94R FOG
KNOXVILLE *    CLOUDY    68  66  94 SW5       29.92R
MARSHALLTOWN   CLOUDY    66  65  96 N3        29.93R FOG
PELLA *        PTCLDY    68  68 100 SW3       29.93S
PERRY *        CLOUDY    63  61  94 N8        29.97R FOG
$$

IAZ004>006-015-016-023>025-035-036-291000-
   NORTH CENTRAL IOWA

CITY           SKY/WX    TMP DP  RH WIND       PRES   REMARKS
ALGONA *       FOG       59  57  94 N7        30.01R VSB 3/4
CLARION *      CLOUDY    61  59  94 N6        29.98R FOG
ESTHERVILLE    CLOUDY    56  56 100 N7        30.02R FOG
FORT DODGE *   CLOUDY    61  57  88 N6        29.99R
MASON CITY     CLOUDY    60  59  96 NE8       30.00R FOG
FOREST CITY *  CLOUDY    59  59 100 N5        29.99S
IOWA FALLS *   FOG       63  61  94 N7        29.97R VSB 3/4
$$

IAZ007>011-017>019-026>030-037>042-050>054-066-291000-
   NORTHEAST IOWA

CITY           SKY/WX    TMP DP  RH WIND       PRES   REMARKS
CEDAR RAPIDS   CLOUDY    66  66 100 S7        29.93R
CHARLES CITY * CLOUDY    61  61 100 N7        29.98R FOG
CLINTON *      CLOUDY    64  63  94 SE15      29.98S
DECORAH *      CLOUDY    61  61 100 NE6       29.97S FOG
DUBUQUE        CLOUDY    64  63  96 S14       29.96S
MONTICELLO *   CLOUDY    66  64  94 S5        29.94S
OELWEIN *        N/A     64  64 100 NE5       29.96R
WATERLOO       CLOUDY    65  64  97 N6        29.94R FOG
$$

IAZ064-065-067-068-078-291000-
   EAST CENTRAL IOWA

CITY           SKY/WX    TMP DP  RH WIND       PRES   REMARKS
DAVENPORT      CLOUDY    65  63  93 S8        29.96S
IOWA CITY      LGT RAIN  66  66 100 SE3       29.94R
MT. PLEASANT * CLOUDY    70  61  73 S7        29.95R
MUSCATINE *    CLOUDY    68  64  88 S6        29.94S
QUAD CITIES    CLOUDY    68  62  81 S6        29.95S
$$

IAZ062-063-075>077-085>089-095>099-291000-
   SOUTHEAST IOWA

CITY           SKY/WX    TMP DP  RH WIND       PRES   REMARKS
BURLINGTON     MOCLDY    69  63  81 S12       29.95S
FAIRFIELD *    CLOUDY    70  63  78 S7        29.94R
FORT MADISON * PTCLDY    68  63  83 S9        29.96S
KEOKUK *       MOCLDY    72  63  73 S10       29.94F
OSKALOOSA *    CLOUDY    66  64  94 S6        29.93S
CENTERVILLE *  CLOUDY    68  66  94 S3        29.95S
OTTUMWA        CLOUDY    68  66  93 S8        29.92R
WASHINGTON *     N/A    N/A N/A N/A MISG        N/A
$$

ABBREVIATIONS USED IN REMARKS
   TC - TEMPERATURES IN CELSIUS
  WCI - WIND CHILL INDEX
   HX - HEAT INDEX
  VSB - VISIBILITY
$$




USA.gov is the U.S. government's official web portal to all federal, state and local government web resources and services.